Home   Weather   Thusis   Past weeks

Flag for Switzerland Past Weather in Thusis, Graubünden, Switzerland — Yesterday and Last 2 Weeks

Now
38 °F

Chilly.


Feels Like: 38 °F
Forecast: 14 / 45 °F
Wind: 2 mph from South

Location: Chur

Current Time: Dec 8, 2016 at 7:17:44 pm

Latest Report: Dec 8, 2016 at 6:00 pm


Visibility: N/A

Pressure: 30.61 "Hg (28.01 "Hg at 718m altitude)

Humidity: 56%

Dew Point: 24 °F

Location of ThusisLocation

Past Weather in Thusis — Graph

°F

Thusis Temperature Yesterday

Maximum temperature yesterday: 49 °F (at 3:00 pm)
Minimum temperature yesterday: 27 °F (at 11:00 pm)
Average temperature yesterday: 35 °F

High & Low Weather Summary for the Past Weeks

 TemperatureHumidityPressure
High62 °F (Nov 24, 2:00 pm)97% (Nov 27, 3:00 am)30.72 "Hg (Nov 27, 3:00 am)
Low23 °F (Dec 3, 8:00 am)27% (Dec 7, 2:00 pm)29.86 "Hg (Nov 25, 12:00 pm)
Average38 °F69%30.30 "Hg
* Reported Nov 23 5:00 pm — Dec 8 5:00 pm, Thusis, Weather by CustomWeather, © 2016

Note: Actual official high and low records may vary slightly from our data, if they occured in-between our weather recording intervals... More about our weather records

Advertising

Thusis Weather History for the Previous 24 Hours

Scroll right to see more
 ConditionsComfort  
Time TempWeatherWind HumidityBarometerVisibility
5:00 pm
Thu, Dec 8
40 °FChilly.1 mph54%30.58 "HgN/A
4:00 pm45 °FScattered clouds.5 mph43%30.54 "Hg16 mi
3:00 pm50 °FCool.2 mph31%30.51 "HgN/A
2:00 pm49 °FCool.No wind30%30.53 "HgN/A
1:00 pm48 °FScattered clouds.2 mph31%30.54 "Hg16 mi
12:00 pm45 °FQuite cool.2 mph34%30.59 "HgN/A
11:00 am40 °FChilly.3 mph41%30.64 "HgN/A
10:00 am34 °FScattered clouds.5 mph54%30.68 "Hg16 mi
9:00 am29 °FChilly.2 mph71%30.71 "HgN/A
8:00 am30 °FChilly.1 mph69%30.69 "HgN/A
7:00 am30 °FClear.No wind66%30.69 "Hg6 mi
6:00 am34 °FChilly.2 mph51%30.66 "HgN/A
5:00 am33 °FChilly.3 mph54%30.66 "HgN/A
4:00 am33 °FClear.3 mph55%30.66 "Hg11 mi
3:00 am31 °FChilly.3 mph61%30.68 "HgN/A
1:00 am28 °FClear.1 mph78%30.71 "Hg12 mi
12:00 am27 °FChilly.2 mph79%30.72 "HgN/A
11:00 pm
Wed, Dec 7
27 °FChilly.2 mph79%30.72 "HgN/A
10:00 pm28 °FChilly.1 mph82%30.71 "HgN/A
9:00 pm28 °FChilly.1 mph85%30.70 "HgN/A
8:00 pm31 °FChilly.1 mph78%30.68 "HgN/A
7:00 pm32 °FFog.1 mph80%30.65 "Hg4 mi
Weather by CustomWeather, © 2016

See weather overviewHow to use our weather pages